[[{"header":{"parameterUnit":"m.s-1","parameterCategory":1,"la1":30.2991,"la2":30.254,"lo1":-89.0895,"lo2":-89.0444,"dy":0.0017,"dx":0.0017,"nx":28,"ny":28,"refTime":"2023-08-18T03:00:00:Z","depth":0,"parameterNumber":2,"parameterNumberName":"U-component_of_WINDS"},"data":[0,0,0,0,0,0,0,0,0,0,0,0,0,0,0,0,0,0,0,0,0,0,0,0,0,0,0,0,0,0,0,0,0,0,0,0,0,0,0,0,0,0,0,0,0,0,0,0,0,0,0,0,0,0,0,0,0,0,1.2288,1.2289,0,1.2443,1.2445,1.2447,1.2512,1.2512,1.2512,1.2512,1.2667,1.2671,1.2676,0,0,0,0,0,0,0,0,0,0,0,0,0,1.2044,1.2048,1.2288,1.229,1.2292,1.2443,1.2445,1.2447,1.2512,1.2512,1.2512,1.2511,1.2666,1.2671,1.2676,0,0,0,0,0,0,0,0,0,0,0,0,0,1.2169,1.2049,1.2287,1.2342,1.2349,1.2443,1.2445,1.2448,1.2513,1.2512,1.2512,1.2511,1.2664,1.267,1.2677,1.2726,0,0,1.2697,1.27,0,0,0,0,0,0,0,0,1.2162,1.2178,1.2332,1.2339,1.2346,1.2458,1.2416,1.2541,1.2513,1.245,1.2512,1.2511,1.2598,1.261,1.264,1.2733,1.274,1.2698,1.2702,1.2704,1.2706,0,0,0,0,0,0,0,1.2153,1.2172,1.2349,1.2335,1.2343,1.2358,1.2376,1.244,1.2524,1.2456,1.2461,1.2479,1.2601,1.2633,1.2644,1.2742,1.2697,1.2703,1.2707,1.271,1.2884,1.2884,0,0,0,0,0,0,1.2136,1.2164,1.2344,1.2354,1.2251,1.2363,1.2382,1.2423,1.2524,1.2539,1.2479,1.2481,1.2622,1.2636,1.2649,1.2714,1.2704,1.2711,1.2714,1.2883,1.2884,1.2884,0,0,0,0,0,0,1.213,1.2151,1.2338,1.226,1.2285,1.2368,1.2412,1.2426,1.2458,1.2541,1.2556,1.2496,1.2622,1.264,1.2707,1.272,1.2714,1.272,1.2882,1.2883,1.2884,1.2842,0,0,0,0,0,0,1.2123,1.2149,1.2169,1.226,1.2289,1.2393,1.2413,1.2429,1.2469,1.2474,1.2561,1.2575,1.2623,1.2696,1.2713,1.2729,1.2725,1.2881,1.2883,1.2884,1.2843,1.2842,1.2841,0,0,0,0,0,1.2114,1.2151,1.217,1.2191,1.2317,1.2394,1.2411,1.2466,1.247,1.2491,1.2544,1.2573,1.2716,1.2703,1.2722,1.274,1.2881,1.2882,1.2884,1.2843,1.2842,1.2841,0,0,0,0,0,0,1.2058,1.2164,1.2186,1.2254,1.2315,1.2405,1.2433,1.2463,1.2523,1.2524,1.2589,1.2608,1.2669,1.2711,1.2695,1.2793,1.2801,1.2806,1.2763,1.2763,1.2762,1.275,1.273,0,0,0,0,0,1.2053,1.2109,1.2198,1.2248,1.2278,1.235,1.2386,1.2423,1.2488,1.2514,1.2573,1.2634,1.2693,1.273,1.2789,1.2849,1.2869,1.2871,1.287,1.2869,1.2873,1.2908,1.291,1.2889,1.2889,1.2889,0,0,1.2044,1.2109,1.214,1.2239,1.229,1.2345,1.2371,1.2428,1.2469,1.2522,1.2589,1.2634,1.2706,1.277,1.2801,1.2807,1.2883,1.2871,1.2869,1.2874,1.2909,1.2911,1.2913,1.289,1.289,1.289,0,0,1.2056,1.2111,1.216,1.2211,1.2289,1.2337,1.2348,1.2435,1.2467,1.2535,1.2576,1.2625,1.2725,1.2775,1.2814,1.2844,1.2872,1.2861,1.2856,1.2889,1.2891,1.2892,1.2903,1.2906,1.2865,1.2865,1.2865,0,1.2035,1.2121,1.218,1.2235,1.2277,1.2329,1.2378,1.2424,1.2517,1.2544,1.255,1.2677,1.2729,1.2805,1.2813,1.2842,1.2856,1.2852,1.2886,1.2888,1.2891,1.2902,1.2906,1.2863,1.2863,1.2863,1.2863,0,1.2091,1.2149,1.2179,1.2268,1.2313,1.2365,1.2431,1.2469,1.2502,1.2549,1.2617,1.2682,1.2755,1.2776,1.2808,1.2856,1.2858,1.2874,1.2883,1.289,1.2901,1.2906,1.286,1.2861,1.2861,1.2862,0,0,1.2072,1.2194,1.2204,1.2245,1.2335,1.2381,1.2434,1.2506,1.2538,1.26,1.2645,1.2729,1.2744,1.2788,1.2826,1.2856,1.2875,1.2868,1.2871,1.2867,1.2932,1.2919,1.2923,1.2894,1.2895,1.2896,1.2926,0,1.2096,1.2195,1.225,1.2326,1.2381,1.2431,1.2477,1.2536,1.2581,1.2633,1.2682,1.274,1.2756,1.2783,1.2814,1.2866,1.2889,1.2865,1.2937,1.2939,1.2917,1.293,1.2917,1.2942,1.2931,1.2932,1.2932,0,1.2138,1.22,1.2282,1.2366,1.2391,1.2431,1.2502,1.2551,1.2619,1.265,1.2698,1.2736,1.2793,1.2798,1.2876,1.2859,1.2891,1.2921,1.2924,1.2933,1.2936,1.2939,1.2951,1.2954,1.294,1.2939,1.2939,0,1.2116,1.222,1.2283,1.2316,1.2416,1.2443,1.2485,1.2553,1.2593,1.2654,1.2681,1.2747,1.2783,1.2833,1.2888,1.2886,1.2961,1.297,1.2987,1.2986,1.3001,1.2999,1.3018,1.3021,1.3021,1.3021,1.3021,0,1.2137,1.2185,1.2274,1.2312,1.2367,1.2429,1.2481,1.2528,1.2587,1.2635,1.2681,1.2724,1.2794,1.2845,1.2888,1.2947,1.2963,1.2988,1.2999,1.2984,1.2981,1.3007,1.3006,1.3022,1.3022,1.3022,1.3022,0,1.2122,1.2184,1.2255,1.2344,1.2367,1.2403,1.2478,1.2517,1.2564,1.2623,1.2641,1.2714,1.2777,1.2837,1.292,1.2949,1.3008,1.3022,1.2985,1.2991,1.3005,1.3003,1.3042,1.305,1.3046,1.3046,1.3046,0,1.2132,1.217,1.2263,1.2299,1.2341,1.2397,1.2439,1.25,1.2541,1.2622,1.265,1.2717,1.2773,1.2871,1.2931,1.2995,1.3011,1.302,1.3021,1.3005,1.3011,1.3009,1.3013,1.3019,1.3019,1.3018,1.3018,0,1.2143,1.2171,1.223,1.2299,1.2347,1.2404,1.2463,1.2489,1.2562,1.2605,1.267,1.2714,1.28,1.2865,1.2936,1.2979,1.301,1.3018,1.3025,1.301,1.2988,1.3,1.2982,1.3016,1.3017,1.3017,1.3017,1.3017,1.2141,1.2177,1.2248,1.2312,1.2362,1.2416,1.2457,1.2509,1.2565,1.2641,1.2674,1.274,1.2806,1.2905,1.2947,1.2999,1.3006,1.3016,1.3019,1.3021,1.3018,1.2979,1.3012,1.3012,1.3012,1.3012,1.3012,0,1.2154,1.2202,1.226,1.2341,1.2391,1.2417,1.2483,1.2522,1.2581,1.2641,1.2696,1.277,1.2834,1.2899,1.2966,1.2995,1.3011,1.301,1.3008,1.3018,1.3008,1.2995,1.2996,1.2996,1.2996,1.2996,1.2996,1.2996,1.2167,1.223,1.2267,1.2355,1.2403,1.2469,1.2504,1.2554,1.2602,1.2684,1.2737,1.278,1.2841,1.2913,1.2972,1.2989,1.3012,1.3007,1.3028,1.3018,1.3018,1.3019,1.3007,1.3011,1.3011,1.3034,1.3034,1.3035]},{"header":{"parameterUnit":"m.s-1","parameterCategory":1,"la1":30.2991,"la2":30.254,"lo1":-89.0895,"lo2":-89.0444,"dy":0.0017,"dx":0.0017,"nx":28,"ny":28,"refTime":"2023-08-18T03:00:00:Z","depth":0,"parameterNumber":3,"parameterNumberName":"V-component_of_WINDS"},"data":[0,0,0,0,0,0,0,0,0,0,0,0,0,0,0,0,0,0,0,0,0,0,0,0,0,0,0,0,0,0,0,0,0,0,0,0,0,0,0,0,0,0,0,0,0,0,0,0,0,0,0,0,0,0,0,0,0,0,4.7926,4.7925,0,4.7849,4.7849,4.7848,4.7759,4.7758,4.7757,4.7755,4.7674,4.7673,4.7672,0,0,0,0,0,0,0,0,0,0,0,0,0,4.7994,4.7993,4.7926,4.7925,4.7924,4.785,4.7849,4.7847,4.776,4.7758,4.7756,4.7755,4.7675,4.7673,4.7672,0,0,0,0,0,0,0,0,0,0,0,0,0,4.7946,4.7993,4.7926,4.7872,4.7866,4.785,4.7848,4.7847,4.776,4.7758,4.7756,4.7754,4.7675,4.7674,4.7672,4.7703,0,0,4.7668,4.7667,0,0,0,0,0,0,0,0,4.7949,4.7943,4.7881,4.7875,4.7869,4.7812,4.7843,4.7799,4.776,4.78,4.7755,4.7753,4.7722,4.7716,4.7706,4.7699,4.7696,4.7668,4.7667,4.7666,4.7666,0,0,0,0,0,0,0,4.7952,4.7946,4.7896,4.788,4.7873,4.785,4.7841,4.7834,4.7773,4.7796,4.779,4.7782,4.7718,4.7708,4.7703,4.7695,4.7668,4.7667,4.7666,4.7665,4.7708,4.771,0,0,0,0,0,0,4.7964,4.7949,4.7898,4.7893,4.7905,4.785,4.784,4.7832,4.7773,4.7762,4.7784,4.7778,4.7711,4.7705,4.77,4.7731,4.7666,4.7665,4.7664,4.7706,4.7708,4.771,0,0,0,0,0,0,4.7966,4.796,4.7901,4.792,4.791,4.7851,4.7843,4.7832,4.7821,4.7763,4.7751,4.7785,4.7709,4.7702,4.7703,4.7727,4.7664,4.7663,4.7704,4.7707,4.7709,4.7795,0,0,0,0,0,0,4.7968,4.7961,4.7973,4.7921,4.791,4.7907,4.7845,4.7832,4.7819,4.7811,4.7761,4.7751,4.7707,4.7706,4.7702,4.7724,4.7662,4.7701,4.7705,4.7708,4.779,4.7801,4.781,0,0,0,0,0,4.7971,4.8,4.7974,4.7969,4.7924,4.7908,4.7902,4.7852,4.7822,4.7833,4.7795,4.7752,4.7726,4.7706,4.7701,4.7724,4.7699,4.7704,4.7708,4.7785,4.7798,4.781,0,0,0,0,0,0,4.8057,4.7992,4.7963,4.7976,4.7949,4.7893,4.7905,4.7868,4.7847,4.784,4.7778,4.7768,4.7776,4.775,4.7729,4.775,4.7706,4.771,4.7766,4.7779,4.7788,4.7794,4.7661,0,0,0,0,0,4.8077,4.8071,4.8015,4.8032,4.8019,4.7965,4.7957,4.7921,4.7889,4.7876,4.7839,4.7809,4.7793,4.7785,4.7767,4.7786,4.7773,4.7799,4.7809,4.7817,4.7821,4.7827,4.7838,4.7725,4.7725,4.7725,0,0,4.8119,4.8084,4.8083,4.8048,4.8022,4.8016,4.7956,4.7952,4.7946,4.7875,4.7874,4.7845,4.7808,4.7817,4.7819,4.7796,4.7849,4.7823,4.783,4.7829,4.7833,4.7843,4.7853,4.7728,4.7728,4.7727,0,0,4.8193,4.8166,4.8176,4.8152,4.8114,4.8077,4.808,4.8031,4.8009,4.8007,4.7953,4.7945,4.7921,4.7895,4.788,4.7944,4.7903,4.794,4.7992,4.7999,4.8007,4.8015,4.8036,4.8045,4.7944,4.7944,4.7944,0,4.825,4.8239,4.8187,4.8186,4.8172,4.8108,4.8118,4.8096,4.8054,4.8045,4.802,4.7987,4.7957,4.7959,4.7975,4.7965,4.7965,4.7945,4.8011,4.8018,4.8024,4.8044,4.8052,4.7948,4.7948,4.7947,4.7947,0,4.831,4.8304,4.8317,4.8279,4.8266,4.8271,4.8218,4.8211,4.8176,4.8143,4.814,4.8102,4.8076,4.8074,4.804,4.8071,4.8057,4.8022,4.7977,4.804,4.8058,4.8065,4.7955,4.7953,4.7952,4.7951,0,0,4.8435,4.8368,4.8373,4.8355,4.8308,4.8301,4.8303,4.8278,4.8273,4.8246,4.8244,4.8225,4.8192,4.8174,4.8136,4.8143,4.8194,4.8107,4.8105,4.8123,4.8224,4.825,4.826,4.8167,4.8169,4.817,4.8227,0,4.8499,4.8498,4.8451,4.8463,4.8455,4.8395,4.8396,4.8367,4.8335,4.8324,4.8288,4.8275,4.8233,4.8222,4.8225,4.8188,4.8214,4.8183,4.8164,4.8164,4.8174,4.8269,4.8297,4.8353,4.8234,4.8235,4.8236,0,4.8573,4.8551,4.8563,4.8515,4.851,4.8512,4.8485,4.8475,4.844,4.8417,4.8397,4.8355,4.8351,4.8309,4.8303,4.8283,4.8272,4.8253,4.8253,4.8249,4.8203,4.8266,4.837,4.8378,4.8246,4.8245,4.8245,0,4.8661,4.8635,4.8638,4.8624,4.8569,4.8572,4.8549,4.8512,4.85,4.8476,4.8467,4.8443,4.8429,4.8411,4.8362,4.8336,4.8361,4.8315,4.834,4.8341,4.8347,4.8347,4.845,4.8342,4.8342,4.8342,4.8342,0,4.8737,4.8746,4.8677,4.8679,4.8687,4.8632,4.8642,4.8612,4.8581,4.8575,4.8521,4.8517,4.8453,4.8441,4.8403,4.8403,4.8398,4.8377,4.8367,4.8382,4.8384,4.8373,4.8368,4.8344,4.8344,4.8343,4.8343,0,4.8836,4.8791,4.879,4.8738,4.8725,4.8733,4.8688,4.8687,4.8653,4.8646,4.8641,4.8586,4.8569,4.8519,4.849,4.8464,4.8474,4.8455,4.8486,4.848,4.8507,4.8505,4.8605,4.8615,4.8503,4.8504,4.8505,0,4.8887,4.8893,4.8842,4.8835,4.8814,4.8803,4.8791,4.8737,4.8726,4.8687,4.869,4.8669,4.8649,4.8625,4.8581,4.8558,4.8537,4.8574,4.8533,4.8548,4.8536,4.8536,4.8536,4.8583,4.8584,4.8585,4.8586,0,4.8981,4.8959,4.8943,4.892,4.8907,4.8885,4.8861,4.8858,4.8797,4.8787,4.877,4.8755,4.8725,4.8704,4.8674,4.8648,4.8607,4.86,4.8604,4.8619,4.8636,4.8626,4.8509,4.8597,4.8596,4.8595,4.8595,4.8594,4.9057,4.9059,4.9023,4.9008,4.8984,4.8962,4.8959,4.8924,4.8909,4.8881,4.885,4.8836,4.88,4.8755,4.8733,4.872,4.8698,4.8704,4.8706,4.8708,4.8715,4.8639,4.8714,4.8714,4.8713,4.8713,4.8713,0,4.9147,4.9122,4.9108,4.9076,4.9064,4.9028,4.8998,4.899,4.8979,4.8949,4.8931,4.8911,4.889,4.8846,4.8821,4.8819,4.8799,4.8814,4.8813,4.8808,4.8736,4.8734,4.883,4.883,4.883,4.883,4.883,4.883,4.9193,4.9195,4.9168,4.9156,4.913,4.9117,4.9103,4.9083,4.9059,4.9039,4.9022,4.8994,4.8957,4.8929,4.8909,4.8896,4.8889,4.891,4.8891,4.8824,4.8813,4.8802,4.88,4.8909,4.8909,4.8963,4.8964,4.8964]}]]